SPACEBEE-61 (47431 NORAD) Tracking and Keplerian Element Data

This shows tracking and keplerian element data for the satellite.

Feedback or suggestion? Click here.




ElementValue
Catalog47431
NameSPACEBEE-61
Epoch Orbit1353
Epoch Day105.82348585
Epoch Year2021
RAAN168.0756
Inclination97.5003
Eccentricity0.0005379
Argument of Perigee338.2744
Mean Anonmoly21.8257
Mean Motion15.11831574
Decay Rate1.927E-05
L11 47431U 21006U 21105.82348585 .00001927 00000-0 11653-3 0 9998
L22 47431 97.5003 168.0756 0005379 338.2744 21.8257 15.11831574 13536

Live tracking and technical data element details for SPACEBEE-61 (NORAD 47431). SPACEBEE-61 can be tracked NOW for your location showing map with azimuth and elevation plus other details from your city location.

Track the satellite on the map from your city or location and see movement details for azimuth, elevation, latitude, longitude, range, height, and movement on the map or in text.







IsCatalogInMostPopularTable: catalog: 47431, numindb: 16
Update: records affected: 1



GetName: 47431 SPACEBEE-61

Hit Count: updated at: Fri, 16 Apr 2021 11:02:43 GMT